Current Version              Previous Version:    01  02  03  04  05  06  07  08  09  10  11  12  13  14  15  16  17  18  19  20  21  22  23  24  25  26  27  28  29  30  
   31  32  33  34  35  36  37  38  39  40  41  42  43  44  45  46  47  48  49  50  51  52  53  54  55  56  57  58  59  60  

[Printable]
891
ASUS44 KFWD 182301
RWRTX
NORTH TEXAS HOURLY WEATHER ROUNDUP
NATIONAL WEATHER SERVICE FORT WORTH TX
600 PM CDT FRI APR 18 2014

NOTE: "FAIR" INDICATES FEW OR NO CLOUDS BELOW 12,000 FEET WITH NO
SIGNIFICANT WEATHER AND/OR OBSTRUCTIONS TO VISIBILITY.

TXZ118-119-190000-
DALLAS/FORT WORTH METROPLEX

CITY           SKY/WX    TMP DP  RH WIND       PRES   REMARKS
DFW AIRPORT    MOSUNNY   76  46  34 E5        30.11F
DALLAS LOVE    MOSUNNY   76  44  32 SE5       30.11F
FTW MEACHAM    SUNNY     74  51  44 CALM      30.11F
DAL-EXECUTIVE  SUNNY     76  45  33 CALM      30.11F
FTW-ALLIANCE   MOSUNNY   75  50  41 VRB5      30.12F
FTW-NAS-JRB    SUNNY     76  45  33 N3        30.16F
FTW-SPINKS     MOSUNNY   73  46  38 CALM      30.13F
ARLINGTON      PTSUNNY   75  47  36 E6        30.11F
ADDISON        MOSUNNY   75  43  31 N3        30.12F
MESQUITE       SUNNY     73  45  35 MISG      30.12S
$$

TXZ091>094-102>105-117-120-121-131>134-190000-
NORTH CENTRAL TEXAS

CITY           SKY/WX    TMP DP  RH WIND       PRES   REMARKS
BRIDGEPORT     SUNNY     70  49  48 CALM      30.14F
DENTON         PTSUNNY   73  47  39 CALM      30.12F
MCKINNEY       SUNNY     74  46  36 VRB3      30.12F
ROCKWALL       SUNNY     76  44  31 N5        30.12S
TERRELL        SUNNY     75  44  33 VRB3      30.13S
$$

TXZ083>090-098>101-113>116-127>130-139>142-154-155-190000-
WESTERN NORTH TEXAS

CITY           SKY/WX    TMP DP  RH WIND       PRES   REMARKS
WICHITA FALLS  PTSUNNY   72  50  45 SW6       30.12F
ABILENE        MOSUNNY   73  46  38 SE6       30.12F
BRECKENRIDGE   CLOUDY    73  47  40 CALM      30.13F
MINERAL WELLS  CLOUDY    72  50  45 E8        30.12F
BROWNWOOD      PTSUNNY   72  48  43 CALM      30.13S
$$

TXZ143>147-156>162-174-175-190000-
CENTRAL TEXAS

CITY           SKY/WX    TMP DP  RH WIND       PRES   REMARKS
WACO           PTSUNNY   72  52  49 E6        30.12F
WACO-TSTC      SUNNY     75  52  43 NE5       30.12F
WACO-MCGREGOR  MOSUNNY   75  50  41 CALM      30.14S
CORSICANA      SUNNY     75  47  36 CALM      30.13F
MEXIA          SUNNY     73  51  47 N5        30.11F
TEMPLE         SUNNY     73  50  43 N8        30.14S
KILLEEN        NOT AVBL
KILLEEN-SKYLRK MOSUNNY   73  52  46 E5        30.12S
LAMPASAS       MOSUNNY   76  55  48 SE7       30.12F
$$

TXZ095>097-106>112-122>126-135>138-148>153-164>167-190000-
EAST TEXAS

CITY           SKY/WX    TMP DP  RH WIND       PRES   REMARKS
PARIS          SUNNY     73  46  38 CALM      30.14S
TYLER          MOSUNNY   76  47  35 E7        30.11S
LONGVIEW       MOSUNNY   72  50  45 E3        30.11S
ATHENS         SUNNY     73  46  38 NE5       30.10S
NACOGDOCHES    MOSUNNY   72  52  49 E6        30.12S
LUFKIN         MOSUNNY   78  51  38 NE7       30.10S
$$

SUPPLEMENTAL OBSERVATIONS (CENTRAL)

CITY           SKY/WX    TMP DP  RH WIND       PRES   REMARKS
$$

SUPPLEMENTAL OBSERVATIONS (WEST)

CITY           SKY/WX    TMP DP  RH WIND       PRES   REMARKS
$$

SUPPLEMENTAL OBSERVATIONS (EAST)

CITY           SKY/WX    TMP DP  RH WIND       PRES   REMARKS
$$

SUPPLEMENTAL OBSERVATIONS ARE A COLLECTION OF AUTOMATED INSTRUMENTS
THAT ARE MAINTAINED BY A VARIETY OF FEDERAL AND STATE AGENCIES.
CERTAIN ELEMENTS...SUCH AS HUMIDITY VALUES AND SUSTAINED WIND
SPEEDS...MAY BE APPROXIMATED.